Tracking 29892 objects as of 21-Nov-2024
HD Live streaming from Space Station
objects crossing your sky now

STARLINK-1965

Track STARLINK-1965 now!
10-day predictions
STARLINK-1965 is classified as:


NORAD ID: 47566
Int'l Code: 2021-009U
Perigee: 553.2 km
Apogee: 555.3 km
Inclination: 53.1 °
Period: 95.6 minutes
Semi major axis: 6925 km
RCS: Unknown
Launch date: February 4, 2021
Source: United States (US)
Launch site: AIR FORCE EASTERN TEST RANGE (AFETR)
Your satellite tracking list
Your tracking list is empty




NASA's NSSDC Master Catalog

Two Line Element Set (TLE):
1 47566U 21009U   24325.04120953  .00014982  00000-0  10217-2 0  9997
2 47566  53.0546 332.3958 0001459  88.3643 271.7514 15.06430891209530
Source of the keplerian elements: AFSPC